W1LH-10 Weather Reports


time (UTC)temp
F
wind
direction
speed
knots
gust
knots
rain 1hr
in
rain 24hr
in
rain mn
in
humidity
%
barometer
mb
20260504210334 48 302 5.2 0.0 0.00 0.00 0.06 85 1003.9
20260504203329 46 265 4.3 0.0 0.00 0.00 0.06 82 1003.7
20260504200324 46 315 4.3 0.0 0.00 0.00 0.06 82 1003.8
20260504193334 46 307 5.2 0.0 0.00 0.00 0.06 81 1003.5
20260504190330 45 253 5.2 0.0 0.00 0.00 0.06 73 1003.7
20260504183341 45 316 3.5 0.0 0.00 0.00 0.06 74 1003.8
20260504180338 45 262 5.2 0.0 0.00 0.00 0.06 78 1004.0
20260504173325 45 229 7.8 0.0 0.00 0.00 0.04 84 1003.9
20260504170320 50 300 8.7 0.0 0.00 0.00 0.00 68 1003.1
20260504160336 52 244 6.1 0.0 0.00 0.00 0.00 60 1003.4
20260504150315 49 273 7.0 0.0 0.00 0.00 0.00 62 1004.4
20260504140329 47 288 5.2 0.0 0.00 0.00 0.00 63 1004.9
20260504130320 43 311 5.2 0.0 0.00 0.00 0.00 69 1005.2
20260504110332 35 338 6.1 0.0 0.00 0.00 0.00 85 1004.4
20260504100356 33 336 7.0 0.0 0.00 0.00 0.00 86 1003.3
20260504080353 33 9 7.8 0.0 0.00 0.00 0.00 68 1002.2
20260504070316 33 24 6.1 0.0 0.00 0.00 0.00 66 1001.8
20260504050344 37 304 6.1 0.0 0.00 0.00 0.00 65 1001.4
20260504043322 38 342 5.2 0.0 0.00 0.00 0.00 64 1001.4
20260504040336 38 337 6.1 0.0 0.00 0.00 0.94 64 1001.1
20260504033323 38 333 6.1 0.0 0.00 0.00 0.94 64 1000.7
20260504030322 38 65 6.1 0.0 0.00 0.00 0.94 64 1000.5
20260504023313 38 26 7.0 0.0 0.00 0.00 0.94 64 1000.5
20260504020335 38 20 6.1 0.0 0.00 0.00 0.94 64 1000.4
20260504013328 38 360 6.1 0.0 0.00 0.00 0.94 64 1000.3
20260504010340 38 44 8.7 0.0 0.00 0.00 0.94 64 1000.1
20260504003335 38 61 9.6 0.0 0.00 0.00 0.94 63 999.6
20260504000333 38 17 8.7 0.0 0.00 0.00 0.93 64 999.5
20260503233317 38 342 7.8 0.0 0.00 0.00 0.92 64 999.2
20260503230334 38 329 8.7 0.0 0.00 0.00 0.91 64 999.0
20260503223330 38 5 8.7 0.0 0.00 0.00 0.90 64 999.0
20260503220331 37 82 8.7 0.0 0.00 0.00 0.89 64 998.8
20260503213322 37 24 8.7 0.0 0.00 0.00 0.88 64 999.1